| time (UTC) | temp F | wind direction | speed MPH | gust MPH | rain 1hr in | rain 24hr in | rain mn in | humidity % | barometer mb |
| 20260901235806 | 57 | 63 | 0.0 | 0.0 | 0.00 | 0.00 | 0.00 | 91 | 1018.9 |
| 20260901235308 | 57 | 62 | 0.0 | 0.0 | 0.00 | 0.00 | 0.00 | 91 | 1018.9 |
| 20260901234814 | 57 | 62 | 0.0 | 0.0 | 0.00 | 0.00 | 0.00 | 90 | 1018.9 |
| 20260901234306 | 57 | 63 | 0.0 | 0.0 | 0.00 | 0.00 | 0.00 | 90 | 1018.9 |
| 20260901233808 | 57 | 62 | 0.0 | 0.0 | 0.00 | 0.00 | 0.00 | 90 | 1019.0 |
| 20260901233308 | 57 | 62 | 0.0 | 0.0 | 0.00 | 0.00 | 0.00 | 90 | 1019.0 |
| 20260901232308 | 57 | 62 | 0.0 | 0.0 | 0.00 | 0.00 | 0.00 | 90 | 1019.1 |
| 20260901231813 | 57 | 62 | 0.0 | 0.0 | 0.00 | 0.00 | 0.00 | 91 | 1019.2 |
| 20260901230810 | 57 | 62 | 0.0 | 0.0 | 0.00 | 0.00 | 0.00 | 91 | 1019.3 |
| 20260901225807 | 56 | 62 | 0.0 | 0.0 | 0.00 | 0.00 | 0.00 | 90 | 1019.3 |
| 20260901225306 | 56 | 62 | 0.0 | 0.0 | 0.00 | 0.00 | 0.00 | 90 | 1019.3 |
| 20260901224308 | 56 | 63 | 0.0 | 0.0 | 0.00 | 0.00 | 0.00 | 90 | 1019.4 |
| 20260901223811 | 56 | 62 | 0.0 | 0.0 | 0.00 | 0.00 | 0.00 | 90 | 1019.4 |
| 20260901223312 | 56 | 63 | 0.0 | 0.0 | 0.00 | 0.00 | 0.00 | 90 | 1019.4 |
| 20260901222805 | 56 | 62 | 0.0 | 0.0 | 0.00 | 0.00 | 0.00 | 90 | 1019.4 |
| 20260901222232 | 56 | 62 | 0.0 | 0.0 | 0.00 | 0.00 | 0.00 | 90 | 1019.3 |
| 20260901221737 | 57 | 62 | 0.0 | 0.0 | 0.00 | 0.00 | 0.00 | 90 | 1019.4 |
| 20260901220729 | 57 | 63 | 0.0 | 0.0 | 0.00 | 0.00 | 0.00 | 90 | 1019.4 |
| 20260901220230 | 57 | 62 | 0.0 | 0.0 | 0.00 | 0.00 | 0.00 | 90 | 1019.3 |
| 20260901215706 | 57 | 62 | 0.0 | 0.0 | 0.00 | 0.00 | 0.00 | 90 | 1019.4 |
| 20260901215207 | 57 | 62 | 0.0 | 0.0 | 0.00 | 0.00 | 0.00 | 90 | 1019.5 |
| 20260901214708 | 57 | 62 | 0.0 | 0.0 | 0.00 | 0.00 | 0.00 | 90 | 1019.4 |
| 20260901214209 | 57 | 62 | 0.0 | 0.0 | 0.00 | 0.00 | 0.00 | 90 | 1019.4 |
| 20260901213707 | 57 | 62 | 0.0 | 0.0 | 0.00 | 0.00 | 0.00 | 90 | 1019.4 |
| 20260901213213 | 57 | 62 | 0.0 | 0.0 | 0.00 | 0.00 | 0.00 | 90 | 1019.4 |
| 20260901212707 | 57 | 62 | 0.0 | 0.0 | 0.00 | 0.00 | 0.00 | 90 | 1019.4 |
| 20260901212206 | 57 | 63 | 0.0 | 0.0 | 0.00 | 0.00 | 0.00 | 89 | 1019.5 |
| 20260901211709 | 57 | 62 | 0.0 | 0.0 | 0.00 | 0.00 | 0.00 | 89 | 1019.5 |
| 20260901211207 | 57 | 63 | 0.0 | 0.0 | 0.00 | 0.00 | 0.00 | 89 | 1019.5 |
| 20260901210132 | 57 | 62 | 0.0 | 0.0 | 0.00 | 0.00 | 0.00 | 89 | 1019.6 |
| 20260901205636 | 57 | 62 | 0.0 | 0.0 | 0.00 | 0.00 | 0.00 | 89 | 1019.7 |
| 20260901204633 | 57 | 62 | 0.0 | 0.0 | 0.00 | 0.00 | 0.00 | 90 | 1019.9 |
| 20260901204133 | 57 | 62 | 0.0 | 0.0 | 0.00 | 0.00 | 0.00 | 89 | 1020.1 |
| 20260901203105 | 58 | 63 | 0.0 | 0.0 | 0.00 | 0.00 | 0.00 | 89 | 1020.1 |
| 20260901202605 | 58 | 62 | 0.0 | 0.0 | 0.00 | 0.00 | 0.00 | 89 | 1020.0 |
| 20260901202104 | 58 | 63 | 0.0 | 0.0 | 0.00 | 0.00 | 0.00 | 89 | 1020.1 |
| 20260901201609 | 58 | 62 | 0.0 | 0.0 | 0.00 | 0.00 | 0.00 | 89 | 1020.1 |
| 20260901200545 | 58 | 62 | 0.0 | 0.0 | 0.00 | 0.00 | 0.00 | 88 | 1019.9 |
| 20260901200045 | 58 | 62 | 0.0 | 0.0 | 0.00 | 0.00 | 0.00 | 88 | 1019.9 |
| 20260901195046 | 59 | 62 | 0.0 | 0.0 | 0.00 | 0.00 | 0.00 | 88 | 1019.9 |
| 20260901194541 | 59 | 62 | 0.0 | 0.0 | 0.00 | 0.00 | 0.00 | 88 | 1019.9 |
| 20260901194037 | 59 | 62 | 0.0 | 0.0 | 0.00 | 0.00 | 0.00 | 88 | 1020.1 |
| 20260901193519 | 59 | 62 | 0.0 | 0.0 | 0.00 | 0.00 | 0.00 | 87 | 1020.0 |
| 20260901193019 | 59 | 62 | 0.0 | 0.0 | 0.00 | 0.00 | 0.00 | 87 | 1020.0 |
| 20260901192523 | 59 | 61 | 0.0 | 0.0 | 0.00 | 0.00 | 0.00 | 86 | 1020.0 |
| 20260901192027 | 59 | 61 | 0.0 | 0.0 | 0.00 | 0.00 | 0.00 | 85 | 1019.8 |
| 20260901191513 | 59 | 61 | 0.0 | 0.0 | 0.00 | 0.00 | 0.00 | 85 | 1019.8 |
| 20260901191036 | 60 | 61 | 0.0 | 0.0 | 0.00 | 0.00 | 0.00 | 84 | 1019.5 |
| 20260901190536 | 60 | 61 | 0.0 | 0.0 | 0.00 | 0.00 | 0.00 | 83 | 1019.5 |
| 20260901190039 | 60 | 61 | 0.0 | 0.0 | 0.00 | 0.00 | 0.00 | 83 | 1019.5 |
| 20260901185532 | 60 | 61 | 0.0 | 0.0 | 0.00 | 0.00 | 0.00 | 82 | 1019.5 |
| 20260901184528 | 61 | 61 | 0.0 | 0.0 | 0.00 | 0.00 | 0.00 | 82 | 1019.4 |
| 20260901184030 | 61 | 61 | 0.0 | 0.0 | 0.00 | 0.00 | 0.00 | 81 | 1019.4 |
| 20260901183533 | 62 | 61 | 0.0 | 0.0 | 0.00 | 0.00 | 0.00 | 81 | 1019.5 |
| 20260901183034 | 62 | 61 | 0.0 | 0.0 | 0.00 | 0.00 | 0.00 | 81 | 1019.4 |
| 20260901182518 | 62 | 61 | 0.0 | 0.0 | 0.00 | 0.00 | 0.00 | 80 | 1019.5 |
| 20260901182033 | 62 | 61 | 0.0 | 0.0 | 0.00 | 0.00 | 0.00 | 79 | 1019.5 |
| 20260901181040 | 62 | 61 | 0.0 | 0.0 | 0.00 | 0.00 | 0.00 | 78 | 1019.6 |
| 20260901180544 | 63 | 61 | 0.0 | 0.0 | 0.00 | 0.00 | 0.00 | 79 | 1019.5 |
| 20260901180018 | 63 | 61 | 0.0 | 0.0 | 0.00 | 0.00 | 0.00 | 79 | 1019.5 |
| 20260901175037 | 64 | 216 | 0.0 | 0.0 | 0.00 | 0.00 | 0.00 | 77 | 1019.6 |
| 20260901174528 | 64 | 216 | 0.0 | 0.0 | 0.00 | 0.00 | 0.00 | 77 | 1019.7 |
| 20260901174018 | 64 | 216 | 0.0 | 0.0 | 0.00 | 0.00 | 0.00 | 77 | 1019.7 |
| 20260901173021 | 64 | 230 | 0.0 | 0.0 | 0.00 | 0.00 | 0.00 | 75 | 1019.8 |
| 20260901172527 | 64 | 311 | 0.0 | 0.0 | 0.00 | 0.00 | 0.00 | 75 | 1019.9 |
| 20260901171519 | 64 | 170 | 0.0 | 0.0 | 0.00 | 0.00 | 0.00 | 75 | 1019.8 |
| 20260901170934 | 65 | 198 | 0.0 | 0.0 | 0.00 | 0.00 | 0.00 | 75 | 1019.8 |
| 20260901165912 | 65 | 207 | 0.0 | 1.0 | 0.00 | 0.00 | 0.00 | 74 | 1019.9 |
| 20260901165415 | 65 | 165 | 0.0 | 1.0 | 0.00 | 0.00 | 0.00 | 74 | 1019.9 |
| 20260901164910 | 65 | 217 | 0.0 | 0.0 | 0.00 | 0.04 | 0.00 | 74 | 1019.9 |
| 20260901164411 | 65 | 214 | 0.0 | 0.0 | 0.00 | 0.04 | 0.00 | 74 | 1019.9 |
| 20260901163920 | 65 | 202 | 0.0 | 0.0 | 0.00 | 0.04 | 0.00 | 73 | 1019.9 |
| 20260901163411 | 66 | 210 | 0.0 | 0.0 | 0.00 | 0.04 | 0.00 | 72 | 1019.8 |
| 20260901162408 | 66 | 233 | 0.0 | 4.0 | 0.00 | 0.04 | 0.00 | 73 | 1019.9 |
| 20260901161911 | 66 | 240 | 0.0 | 2.0 | 0.00 | 0.04 | 0.00 | 72 | 1019.9 |
| 20260901160835 | 66 | 233 | 0.0 | 1.0 | 0.00 | 0.04 | 0.00 | 71 | 1019.8 |
| 20260901160334 | 66 | 244 | 0.0 | 1.0 | 0.00 | 0.04 | 0.00 | 71 | 1019.8 |
| 20260901155839 | 66 | 162 | 0.0 | 5.0 | 0.00 | 0.04 | 0.00 | 73 | 1019.8 |
| 20260901155338 | 66 | 272 | 0.0 | 5.0 | 0.00 | 0.04 | 0.00 | 71 | 1019.7 |
| 20260901154808 | 66 | 167 | 0.0 | 4.0 | 0.00 | 0.05 | 0.00 | 73 | 1019.7 |
| 20260901154307 | 66 | 47 | 0.0 | 4.0 | 0.00 | 0.05 | 0.00 | 72 | 1019.8 |
| 20260901152738 | 66 | 213 | 0.0 | 6.0 | 0.00 | 0.05 | 0.00 | 71 | 1019.7 |
| 20260901151707 | 66 | 89 | 0.0 | 6.0 | 0.00 | 0.06 | 0.00 | 74 | 1019.7 |
| 20260901151208 | 66 | 212 | 0.0 | 6.0 | 0.00 | 0.06 | 0.00 | 74 | 1019.7 |
| 20260901150711 | 66 | 233 | 0.0 | 4.0 | 0.00 | 0.07 | 0.00 | 74 | 1019.6 |
| 20260901150136 | 66 | 219 | 0.0 | 1.0 | 0.00 | 0.07 | 0.00 | 74 | 1019.7 |
| 20260901145634 | 66 | 261 | 0.0 | 2.0 | 0.00 | 0.07 | 0.00 | 74 | 1019.7 |
| 20260901145113 | 66 | 325 | 0.0 | 1.0 | 0.00 | 0.07 | 0.00 | 73 | 1019.6 |
| 20260901143614 | 66 | 226 | 0.0 | 0.0 | 0.00 | 0.08 | 0.00 | 74 | 1019.6 |
| 20260901143109 | 66 | 226 | 0.0 | 2.0 | 0.00 | 0.08 | 0.00 | 74 | 1019.6 |
| 20260901142108 | 65 | 235 | 0.0 | 2.0 | 0.00 | 0.09 | 0.00 | 75 | 1019.6 |
| 20260901141537 | 65 | 285 | 0.0 | 2.0 | 0.00 | 0.09 | 0.00 | 75 | 1019.6 |
| 20260901141040 | 65 | 255 | 0.0 | 8.0 | 0.00 | 0.10 | 0.00 | 76 | 1019.6 |
| 20260901140533 | 65 | 236 | 1.0 | 8.0 | 0.00 | 0.10 | 0.00 | 75 | 1019.6 |
| 20260901140051 | 65 | 236 | 1.0 | 8.0 | 0.00 | 0.10 | 0.00 | 75 | 1019.6 |
| 20260901135531 | 65 | 214 | 1.0 | 8.0 | 0.00 | 0.10 | 0.00 | 75 | 1019.6 |
| 20260901134527 | 65 | 231 | 0.0 | 4.0 | 0.00 | 0.10 | 0.00 | 78 | 1019.6 |
| 20260901134025 | 65 | 195 | 0.0 | 4.0 | 0.00 | 0.10 | 0.00 | 77 | 1019.6 |
| 20260901133538 | 65 | 338 | 0.0 | 6.0 | 0.00 | 0.12 | 0.00 | 75 | 1019.5 |
| 20260901133037 | 65 | 291 | 0.0 | 6.0 | 0.00 | 0.12 | 0.00 | 76 | 1019.5 |
| 20260901132053 | 65 | 302 | 1.0 | 8.0 | 0.00 | 0.16 | 0.00 | 75 | 1019.6 |
| 20260901131546 | 65 | 215 | 1.0 | 5.0 | 0.00 | 0.17 | 0.00 | 76 | 1019.5 |
| 20260901130528 | 65 | 246 | 2.0 | 10.0 | 0.00 | 0.17 | 0.00 | 75 | 1019.4 |
| 20260901130008 | 65 | 295 | 2.0 | 10.0 | 0.00 | 0.17 | 0.00 | 74 | 1019.4 |
| 20260901125538 | 65 | 300 | 1.0 | 10.0 | 0.00 | 0.17 | 0.00 | 75 | 1019.5 |
| 20260901125019 | 65 | 236 | 0.0 | 9.0 | 0.00 | 0.19 | 0.00 | 77 | 1019.4 |
| 20260901124520 | 66 | 243 | 1.0 | 9.0 | 0.00 | 0.19 | 0.00 | 76 | 1019.5 |
| 20260901124032 | 66 | 302 | 1.0 | 9.0 | 0.00 | 0.19 | 0.00 | 76 | 1019.5 |
| 20260901123543 | 65 | 299 | 1.0 | 9.0 | 0.00 | 0.19 | 0.00 | 73 | 1019.6 |
| 20260901123037 | 65 | 293 | 1.0 | 9.0 | 0.00 | 0.19 | 0.00 | 73 | 1019.6 |
| 20260901122539 | 65 | 225 | 1.0 | 8.0 | 0.00 | 0.19 | 0.00 | 73 | 1019.6 |
| 20260901122036 | 65 | 268 | 1.0 | 8.0 | 0.00 | 0.19 | 0.00 | 74 | 1019.5 |
| 20260901121501 | 65 | 267 | 1.0 | 11.0 | 0.00 | 0.19 | 0.00 | 74 | 1019.5 |
| 20260901120946 | 66 | 290 | 1.0 | 11.0 | 0.00 | 0.19 | 0.00 | 75 | 1019.5 |
| 20260901120444 | 66 | 296 | 1.0 | 6.0 | 0.00 | 0.19 | 0.00 | 76 | 1019.4 |
| 20260901115935 | 65 | 310 | 1.0 | 8.0 | 0.00 | 0.19 | 0.00 | 75 | 1019.5 |
| 20260901115434 | 65 | 351 | 1.0 | 8.0 | 0.00 | 0.19 | 0.00 | 75 | 1019.4 |
| 20260901114910 | 65 | 220 | 1.0 | 10.0 | 0.00 | 0.19 | 0.00 | 74 | 1019.4 |
| 20260901114335 | 66 | 219 | 1.0 | 10.0 | 0.00 | 0.19 | 0.00 | 73 | 1019.4 |
| 20260901113834 | 66 | 268 | 1.0 | 5.0 | 0.00 | 0.19 | 0.00 | 72 | 1019.3 |
| 20260901112810 | 65 | 305 | 1.0 | 7.0 | 0.00 | 0.19 | 0.00 | 70 | 1019.5 |
| 20260901112306 | 66 | 240 | 1.0 | 7.0 | 0.00 | 0.19 | 0.00 | 73 | 1019.4 |
| 20260901111806 | 66 | 295 | 1.0 | 6.0 | 0.00 | 0.19 | 0.00 | 71 | 1019.4 |
| 20260901111239 | 66 | 270 | 1.0 | 8.0 | 0.00 | 0.19 | 0.00 | 73 | 1019.3 |
| 20260901110737 | 66 | 224 | 1.0 | 8.0 | 0.00 | 0.19 | 0.00 | 72 | 1019.4 |
| 20260901110246 | 65 | 300 | 1.0 | 4.0 | 0.00 | 0.19 | 0.00 | 72 | 1019.3 |
| 20260901105211 | 65 | 255 | 2.0 | 10.0 | 0.00 | 0.19 | 0.00 | 71 | 1019.3 |
| 20260901104717 | 65 | 187 | 2.0 | 9.0 | 0.00 | 0.20 | 0.00 | 70 | 1019.3 |
| 20260901104212 | 66 | 236 | 2.0 | 9.0 | 0.00 | 0.20 | 0.00 | 70 | 1019.3 |
| 20260901103708 | 66 | 290 | 1.0 | 11.0 | 0.00 | 0.20 | 0.00 | 68 | 1019.3 |
| 20260901103210 | 66 | 289 | 2.0 | 11.0 | 0.00 | 0.20 | 0.00 | 70 | 1019.2 |
| 20260901102710 | 66 | 162 | 2.0 | 11.0 | 0.00 | 0.20 | 0.00 | 73 | 1019.2 |
| 20260901102214 | 65 | 196 | 2.0 | 11.0 | 0.00 | 0.20 | 0.00 | 74 | 1019.1 |
| 20260901101713 | 65 | 221 | 1.0 | 6.0 | 0.00 | 0.24 | 0.00 | 73 | 1019.1 |
| 20260901101141 | 65 | 271 | 1.0 | 12.0 | 0.00 | 0.24 | 0.00 | 74 | 1019.1 |
| 20260901095637 | 65 | 170 | 1.0 | 10.0 | 0.00 | 0.24 | 0.00 | 75 | 1018.9 |
| 20260901095136 | 65 | 247 | 1.0 | 10.0 | 0.00 | 0.25 | 0.00 | 75 | 1018.9 |
| 20260901094126 | 65 | 212 | 1.0 | 13.0 | 0.00 | 0.25 | 0.00 | 75 | 1018.8 |
| 20260901093116 | 65 | 270 | 1.0 | 8.0 | 0.00 | 0.27 | 0.00 | 77 | 1018.7 |
| 20260901092617 | 65 | 246 | 1.0 | 9.0 | 0.00 | 0.28 | 0.00 | 76 | 1018.7 |
| 20260901092110 | 66 | 240 | 1.0 | 9.0 | 0.00 | 0.29 | 0.00 | 72 | 1018.6 |
| 20260901091109 | 66 | 155 | 1.0 | 14.0 | 0.00 | 0.29 | 0.00 | 73 | 1018.5 |
| 20260901085610 | 65 | 239 | 1.0 | 14.0 | 0.00 | 0.30 | 0.00 | 73 | 1018.5 |
| 20260901084625 | 65 | 200 | 0.0 | 4.0 | 0.00 | 0.31 | 0.00 | 75 | 1018.4 |
| 20260901084122 | 65 | 295 | 1.0 | 11.0 | 0.00 | 0.31 | 0.00 | 74 | 1018.4 |
| 20260901083113 | 65 | 199 | 1.0 | 11.0 | 0.00 | 0.31 | 0.00 | 74 | 1018.3 |
| 20260901082615 | 65 | 257 | 1.0 | 11.0 | 0.00 | 0.31 | 0.00 | 74 | 1018.3 |
| 20260901081541 | 65 | 191 | 1.0 | 9.0 | 0.00 | 0.31 | 0.00 | 76 | 1018.1 |
| 20260901081037 | 64 | 236 | 1.0 | 9.0 | 0.00 | 0.31 | 0.00 | 75 | 1018.1 |
| 20260901080549 | 63 | 308 | 0.0 | 5.0 | 0.00 | 0.31 | 0.00 | 78 | 1018.1 |
| 20260901080052 | 63 | 181 | 0.0 | 3.0 | 0.00 | 0.31 | 0.00 | 78 | 1018.0 |
| 20260901075523 | 63 | 262 | 0.0 | 7.0 | 0.00 | 0.31 | 0.00 | 80 | 1018.0 |
| 20260901075021 | 63 | 189 | 0.0 | 7.0 | 0.00 | 0.31 | 0.00 | 80 | 1018.0 |
| 20260901074037 | 63 | 262 | 0.0 | 7.0 | 0.00 | 0.31 | 0.00 | 81 | 1017.8 |
| 20260901073524 | 63 | 192 | 0.0 | 5.0 | 0.00 | 0.31 | 0.00 | 81 | 1017.6 |
| 20260901073033 | 63 | 274 | 0.0 | 5.0 | 0.00 | 0.31 | 0.00 | 82 | 1017.6 |
| 20260901072527 | 63 | 186 | 0.0 | 0.0 | 0.00 | 0.31 | 0.00 | 83 | 1017.6 |
| 20260901072030 | 63 | 256 | 0.0 | 6.0 | 0.00 | 0.31 | 0.00 | 82 | 1017.6 |
| 20260901071517 | 62 | 256 | 0.0 | 6.0 | 0.00 | 0.31 | 0.00 | 82 | 1017.5 |
| 20260901071034 | 62 | 238 | 0.0 | 3.0 | 0.00 | 0.31 | 0.00 | 82 | 1017.5 |
| 20260901070530 | 62 | 259 | 0.0 | 0.0 | 0.00 | 0.31 | 0.00 | 83 | 1017.5 |
| 20260901065531 | 62 | 268 | 0.0 | 1.0 | 0.00 | 0.31 | 0.00 | 83 | 1017.3 |
| 20260901065059 | 62 | 256 | 0.0 | 5.0 | 0.00 | 0.31 | 0.00 | 83 | 1017.4 |
| 20260901064520 | 62 | 256 | 0.0 | 5.0 | 0.00 | 0.31 | 0.00 | 82 | 1017.3 |
| 20260901063543 | 62 | 155 | 0.0 | 5.0 | 0.00 | 0.31 | 0.00 | 84 | 1017.3 |
| 20260901063020 | 62 | 239 | 0.0 | 0.0 | 0.00 | 0.31 | 0.00 | 85 | 1017.2 |
| 20260901062457 | 61 | 264 | 0.0 | 1.0 | 0.00 | 0.35 | 0.00 | 85 | 1017.2 |
| 20260901061934 | 61 | 244 | 0.0 | 0.0 | 0.00 | 0.57 | 0.00 | 85 | 1017.2 |
| 20260901060934 | 61 | 259 | 0.0 | 3.0 | 0.00 | 0.57 | 0.00 | 85 | 1017.1 |
| 20260901060415 | 61 | 223 | 0.0 | 5.0 | 0.00 | 0.57 | 0.00 | 85 | 1017.0 |
| 20260901055907 | 61 | 223 | 0.0 | 5.0 | 0.00 | 0.57 | 0.00 | 85 | 1016.9 |
| 20260901055408 | 61 | 256 | 0.0 | 1.0 | 0.00 | 0.57 | 0.00 | 84 | 1016.9 |
| 20260901054912 | 61 | 233 | 0.0 | 1.0 | 0.00 | 0.57 | 0.00 | 84 | 1016.8 |
| 20260901054407 | 61 | 169 | 0.0 | 1.0 | 0.00 | 0.57 | 0.00 | 85 | 1016.8 |
| 20260901053908 | 61 | 264 | 0.0 | 4.0 | 0.00 | 0.57 | 0.00 | 85 | 1016.7 |
| 20260901053410 | 61 | 250 | 0.0 | 4.0 | 0.00 | 0.58 | 0.00 | 86 | 1016.7 |
| 20260901052909 | 61 | 258 | 0.0 | 2.0 | 0.00 | 0.58 | 0.00 | 86 | 1016.7 |
| 20260901052406 | 61 | 258 | 0.0 | 2.0 | 0.00 | 0.59 | 0.00 | 86 | 1016.6 |
| 20260901051906 | 61 | 255 | 0.0 | 0.0 | 0.00 | 0.68 | 0.00 | 86 | 1016.6 |
| 20260901051338 | 61 | 250 | 0.0 | 2.0 | 0.00 | 0.68 | 0.00 | 86 | 1016.7 |
| 20260901050836 | 61 | 250 | 0.0 | 2.0 | 0.00 | 0.69 | 0.00 | 86 | 1016.6 |
| 20260901045813 | 61 | 235 | 0.0 | 1.0 | 0.00 | 0.69 | 0.00 | 86 | 1016.5 |
| 20260901045307 | 61 | 235 | 0.0 | 1.0 | 0.00 | 0.69 | 0.00 | 86 | 1016.5 |
| 20260901044306 | 61 | 244 | 0.0 | 1.0 | 0.00 | 0.69 | 0.00 | 86 | 1016.4 |
| 20260901043236 | 61 | 258 | 0.0 | 0.0 | 0.00 | 0.69 | 0.00 | 87 | 1016.3 |
| 20260901042711 | 61 | 258 | 0.0 | 0.0 | 0.00 | 0.69 | 0.00 | 87 | 1016.3 |
| 20260901042214 | 61 | 258 | 0.0 | 5.0 | 0.00 | 0.69 | 0.00 | 87 | 1016.3 |
| 20260901041713 | 61 | 244 | 0.0 | 5.0 | 0.00 | 0.69 | 0.00 | 88 | 1016.2 |
| 20260901041212 | 61 | 243 | 0.0 | 2.0 | 0.00 | 0.69 | 0.00 | 88 | 1016.2 |
| 20260901040711 | 61 | 241 | 0.0 | 1.0 | 0.00 | 0.69 | 0.00 | 88 | 1016.1 |
| 20260901040227 | 61 | 264 | 0.0 | 0.0 | 0.00 | 0.69 | 0.00 | 88 | 1016.1 |
| 20260901035713 | 61 | 269 | 0.0 | 0.0 | 0.00 | 0.69 | 0.00 | 88 | 1016.1 |
| 20260901035211 | 61 | 253 | 0.0 | 0.0 | 0.00 | 0.69 | 0.00 | 88 | 1016.1 |
| 20260901034201 | 61 | 253 | 0.0 | 0.0 | 0.00 | 0.69 | 0.00 | 88 | 1016.0 |
| 20260901033635 | 61 | 254 | 0.0 | 0.0 | 0.00 | 0.69 | 0.00 | 88 | 1015.9 |
| 20260901033139 | 61 | 253 | 0.0 | 0.0 | 0.00 | 0.69 | 0.00 | 88 | 1015.9 |
| 20260901032635 | 61 | 253 | 0.0 | 0.0 | 0.00 | 0.69 | 0.00 | 88 | 1015.9 |
| 20260901032113 | 61 | 253 | 0.0 | 0.0 | 0.00 | 0.69 | 0.00 | 88 | 1015.9 |
| 20260901031611 | 61 | 253 | 0.0 | 0.0 | 0.00 | 0.69 | 0.00 | 88 | 1015.9 |
| 20260901031109 | 60 | 253 | 0.0 | 0.0 | 0.00 | 0.69 | 0.00 | 88 | 1015.9 |
| 20260901030610 | 60 | 253 | 0.0 | 0.0 | 0.00 | 0.72 | 0.00 | 89 | 1016.0 |
| 20260901030115 | 60 | 253 | 0.0 | 0.0 | 0.00 | 0.72 | 0.00 | 89 | 1015.9 |
| 20260901025609 | 61 | 253 | 0.0 | 0.0 | 0.00 | 0.72 | 0.00 | 88 | 1016.0 |
| 20260901025115 | 61 | 253 | 0.0 | 0.0 | 0.00 | 0.72 | 0.00 | 88 | 1016.0 |
| 20260901024611 | 61 | 253 | 0.0 | 0.0 | 0.00 | 0.72 | 0.00 | 88 | 1015.9 |
| 20260901024109 | 61 | 254 | 0.0 | 0.0 | 0.00 | 0.72 | 0.00 | 88 | 1015.9 |
| 20260901023119 | 61 | 253 | 0.0 | 0.0 | 0.00 | 0.72 | 0.00 | 88 | 1015.9 |
| 20260901022610 | 62 | 253 | 0.0 | 0.0 | 0.00 | 0.72 | 0.00 | 88 | 1015.8 |
| 20260901022111 | 62 | 253 | 0.0 | 0.0 | 0.00 | 0.72 | 0.00 | 87 | 1015.8 |
| 20260901021611 | 62 | 254 | 0.0 | 0.0 | 0.00 | 0.72 | 0.00 | 87 | 1015.7 |
| 20260901021113 | 62 | 252 | 0.0 | 0.0 | 0.00 | 0.72 | 0.00 | 87 | 1015.6 |
| 20260901020609 | 62 | 252 | 0.0 | 0.0 | 0.00 | 0.72 | 0.00 | 86 | 1015.6 |
| 20260901020115 | 62 | 251 | 0.0 | 4.0 | 0.00 | 0.72 | 0.00 | 86 | 1015.7 |
| 20260901015119 | 63 | 256 | 0.0 | 2.0 | 0.00 | 0.72 | 0.00 | 86 | 1015.7 |
| 20260901014616 | 63 | 256 | 0.0 | 4.0 | 0.00 | 0.72 | 0.00 | 86 | 1015.7 |
| 20260901014110 | 63 | 257 | 0.0 | 4.0 | 0.00 | 0.72 | 0.00 | 86 | 1015.8 |
| 20260901013609 | 63 | 250 | 0.0 | 2.0 | 0.00 | 0.72 | 0.00 | 87 | 1015.7 |
| 20260901013106 | 63 | 250 | 0.0 | 2.0 | 0.00 | 0.72 | 0.00 | 87 | 1015.7 |
| 20260901012058 | 63 | 252 | 0.0 | 4.0 | 0.00 | 0.72 | 0.00 | 87 | 1015.6 |
| 20260901011549 | 64 | 253 | 0.0 | 4.0 | 0.00 | 0.72 | 0.00 | 87 | 1015.5 |
| 20260901010539 | 64 | 248 | 0.0 | 1.0 | 0.00 | 0.72 | 0.00 | 87 | 1015.4 |
| 20260901010125 | 64 | 248 | 0.0 | 4.0 | 0.00 | 0.72 | 0.00 | 87 | 1015.5 |
| 20260901004936 | 64 | 254 | 0.0 | 6.0 | 0.00 | 0.72 | 0.00 | 87 | 1015.4 |
| 20260901004440 | 64 | 254 | 0.0 | 6.0 | 0.00 | 0.72 | 0.00 | 87 | 1015.3 |
| 20260901003436 | 64 | 260 | 0.0 | 4.0 | 0.00 | 0.73 | 0.00 | 87 | 1015.3 |
| 20260901002936 | 64 | 266 | 0.0 | 4.0 | 0.00 | 0.73 | 0.00 | 87 | 1015.3 |
| 20260901002410 | 64 | 269 | 0.0 | 3.0 | 0.00 | 0.73 | 0.00 | 87 | 1015.3 |
| 20260901001908 | 64 | 238 | 0.0 | 2.0 | 0.00 | 0.74 | 0.00 | 88 | 1015.3 |
| 20260901001411 | 64 | 238 | 0.0 | 2.0 | 0.00 | 0.74 | 0.00 | 88 | 1015.3 |
| 20260901000909 | 64 | 257 | 0.0 | 6.0 | 0.00 | 0.74 | 0.00 | 88 | 1015.3 |
| 20260901000408 | 64 | 186 | 0.0 | 6.0 | 0.00 | 0.74 | 0.00 | 88 | 1015.3 |